GEFSSE_con_cape1000_210.txt.gz
Probability
6 23 61 77 84 84 84 87 77 77 84 87 87 84 84 87 87 81 74 68 68 71 71 65 58 55 52 52 55 55 55 52 55 48 55 55 52 68 65 48 61 45 71
13 39 65 81 87 81 84 87 84 81 84 87 84 87 87 90 90 87 77 74 68 71 68 68 68 65 61 61 52 45 55 55 61 52 55 55 55 55 58 52 55 52 71
10 35 55 81 90 90 87 87 84 84 87 90 94 94 94 94 87 84 81 74 68 71 68 71 71 71 65 65 55 45 52 55 58 58 48 32 35 45 48 55 55 61 74
16 42 68 87 87 84 87 90 94 94 94 94 94 97 97 94 87 84 81 84 84 74 71 68 68 68 61 48 48 45 48 48 48 42 16 16 19 39 45 48 58 71 74
29 52 81 90 84 84 90 90 94 94 97 97 97 97 97 94 90 94 90 77 81 74 74 68 68 58 55 42 48 48 48 42 32 19 13 16 26 45 39 52 55 61 58
39 48 74 90 90 87 90 90 97 94 90 94 94 97 94 87 90 90 90 74 77 71 65 61 65 58 55 48 48 45 48 45 19 0 19 19 35 48 45 52 58 58 55
35 52 61 94 94 94 97 94 94 90 97 100 90 90 94 90 90 87 90 81 74 71 71 68 65 58 52 39 39 42 42 32 10 10 29 23 45 61 45 42 45 35 42
35 52 65 97 100 100 100 94 94 97 94 97 94 94 90 90 94 94 84 87 74 71 71 74 65 58 55 58 55 45 29 23 3 3 19 29 61 61 45 48 55 52 48
32 58 65 61 84 77 87 90 94 97 97 97 90 87 87 90 90 81 77 77 77 74 68 68 61 61 55 52 55 48 39 23 3 10 16 29 45 55 55 55 52 55 45
29 45 48 55 65 61 68 81 87 90 90 94 90 87 87 84 81 68 81 74 81 74 61 65 48 48 68 65 55 52 35 26 3 6 13 32 48 45 42 55 52 42 42
35 45 35 29 42 42 45 61 74 81 81 84 87 77 77 61 52 68 65 81 68 58 55 61 55 45 52 58 58 39 29 23 3 13 16 32 48 48 48 55 55 48 39
32 29 39 42 48 52 32 77 71 58 71 81 84 68 71 81 71 45 68 71 68 52 58 61 52 48 42 45 45 48 26 6 13 10 26 35 48 45 48 55 48 45 39
23 19 32 42 61 52 61 48 58 68 74 65 68 65 84 68 61 65 84 84 87 58 61 32 42 42 32 58 55 45 35 16 16 13 26 42 48 52 55 48 45 39 39
29 39 29 35 61 81 68 42 39 39 61 52 65 58 45 58 55 65 61 58 58 71 71 42 58 52 52 42 35 29 23 19 16 16 48 48 55 48 48 52 45 42 29
39 45 58 71 81 87 90 77 48 61 48 55 74 65 55 48 48 35 68 74 48 39 52 65 42 45 39 35 26 23 16 19 23 26 42 48 52 48 42 45 42 39 29
45 45 61 77 81 87 87 81 68 65 81 65 58 61 58 55 52 45 65 68 48 35 35 45 39 48 35 42 29 26 23 23 39 29 29 48 48 55 48 45 39 42 32
55 58 65 68 71 87 77 68 58 68 61 65 58 61 65 58 58 52 48 52 48 45 55 52 42 32 39 26 32 26 26 35 35 32 32 42 48 52 68 58 48 52 42
71 74 74 55 68 84 90 87 74 71 71 71 65 61 61 58 55 55 48 42 58 45 42 52 45 32 39 29 29 35 35 42 32 29 23 35 39 35 52 68 61 55 55
81 81 84 74 77 74 84 87 77 81 81 71 74 71 61 58 58 52 61 68 65 55 52 48 39 45 48 52 32 52 29 35 29 26 26 23 32 35 45 58 58 55 48
77 81 81 81 84 84 84 84 81 71 74 77 74 71 71 71 58 55 61 65 45 52 61 58 71 71 77 58 29 32 42 45 42 26 26 29 32 26 26 42 52 42 52
74 74 84 87 90 90 81 77 77 74 77 71 61 65 68 68 68 65 45 65 74 65 68 48 65 55 52 58 42 45 39 29 26 42 29 29 26 26 35 35 48 58 58
81 74 81 81 87 90 87 84 84 77 71 65 68 71 71 61 65 48 68 65 65 77 61 61 74 61 45 42 42 39 32 19 35 16 26 32 29 32 26 29 45 65 58
81 81 74 81 84 87 84 68 71 77 74 81 77 81 71 58 55 58 65 55 68 61 68 74 71 68 61 45 35 35 45 29 29 16 19 19 29 32 29 32 32 48 52
74 74 77 77 81 84 77 65 65 77 71 84 81 77 74 61 58 58 55 61 65 58 71 65 55 74 71 61 52 52 39 32 29 19 3 16 19 26 32 16 23 35 39
71 74 77 77 81 81 81 81 81 71 71 68 74 74 71 61 58 61 58 61 68 65 58 61 68 68 71 68 55 55 45 45 23 42 23 29 23 23 23 26 32 29 26
71 74 74 81 81 81 81 77 87 81 74 71 71 58 55 58 58 52 52 61 68 55 58 58 65 55 65 61 61 58 52 48 45 42 45 39 29 19 10 23 26 26 29

GEFSSE_con_cape1000_216.txt.gz
Probability
19 39 77 77 77 74 74 74 77 68 77 81 84 81 74 65 52 61 61 48 45 55 42 42 42 32 39 45 39 52 48 52 55 52 52 58 48 52 52 48 52 42 74
32 45 84 84 81 81 81 77 81 81 87 84 77 81 81 74 68 61 58 58 55 52 52 45 45 39 42 48 42 42 42 48 45 48 45 39 35 39 45 45 45 39 58
35 61 81 84 84 84 84 84 87 84 87 90 81 81 87 84 74 71 58 58 61 58 55 52 48 42 52 48 42 42 48 42 39 52 45 16 26 45 45 45 52 55 58
35 65 84 84 84 84 84 87 94 90 94 90 87 87 87 74 74 77 68 65 65 55 58 55 52 42 42 45 45 48 45 48 45 48 23 10 19 48 55 55 52 65 55
61 77 87 87 87 87 87 90 90 90 94 90 87 87 81 84 74 71 68 68 61 61 58 61 52 48 45 45 48 52 48 48 48 32 13 29 23 52 61 55 45 58 55
42 61 87 90 90 94 97 90 90 90 90 90 94 90 84 84 84 77 71 71 65 65 61 58 55 52 48 48 45 32 39 48 29 19 13 26 29 52 52 58 55 55 58
35 45 77 94 97 97 90 87 94 97 94 90 87 84 87 87 81 77 74 74 65 68 61 58 55 52 45 39 32 26 32 42 23 29 26 35 35 65 55 55 55 48 45
39 61 94 94 94 94 90 90 90 90 87 81 81 81 81 81 74 81 84 84 77 65 65 61 52 48 55 45 35 32 32 35 23 19 32 32 61 74 45 42 52 55 39
19 55 71 84 94 97 97 94 94 94 84 81 81 74 71 77 74 74 81 84 77 68 68 61 58 48 39 39 35 23 48 55 35 19 16 29 71 65 48 52 45 42 39
26 45 61 61 84 90 87 90 94 87 81 77 71 68 68 68 68 74 77 84 71 65 58 58 55 45 45 42 29 35 42 35 23 13 10 26 77 48 48 48 42 45 35
29 35 35 48 61 61 45 65 81 81 81 84 81 68 77 81 61 77 71 87 74 71 58 52 55 52 65 48 42 39 29 19 13 10 19 42 68 55 55 45 39 35 26
35 29 32 45 71 58 48 77 81 77 90 90 94 94 94 90 74 35 90 90 61 61 58 55 61 48 39 32 32 39 26 13 10 16 16 65 65 55 55 52 45 39 35
39 35 39 61 71 71 87 84 74 81 87 87 81 87 90 90 87 71 81 81 87 71 65 61 48 42 45 42 45 45 45 19 13 10 26 65 61 58 52 39 48 42 35
48 48 42 55 87 90 87 84 81 81 81 81 87 81 87 94 90 87 94 87 90 84 84 77 68 65 55 52 48 42 32 26 23 23 35 68 65 55 45 52 39 32 32
61 61 71 84 94 94 94 84 77 77 74 81 77 81 84 84 84 90 94 94 87 90 84 81 77 77 71 68 42 32 35 26 26 26 29 58 68 68 61 52 48 35 32
65 68 74 81 94 94 90 87 90 74 81 77 74 74 84 84 81 87 90 84 81 84 81 84 77 77 71 71 65 42 23 29 52 42 42 48 61 58 58 48 42 42 39
68 74 90 84 87 94 90 90 81 87 71 81 74 71 74 77 84 94 87 87 87 84 74 71 77 77 68 65 61 58 45 48 39 58 48 39 39 65 61 55 55 42 35
77 94 87 68 94 90 90 87 87 84 81 84 77 84 74 74 81 84 87 84 81 84 81 77 68 77 77 71 74 71 68 74 52 55 58 61 45 26 52 65 65 58 48
84 90 94 94 94 94 94 87 87 84 87 87 87 84 81 77 81 87 87 84 81 77 81 71 71 77 74 74 68 71 68 74 74 45 52 58 52 58 26 42 61 58 48
87 90 94 94 94 94 94 94 90 87 87 90 94 90 81 77 84 81 87 87 84 77 81 81 74 71 74 71 52 55 68 58 65 65 48 39 42 42 26 26 32 45 52
87 87 90 94 94 94 94 94 94 87 87 84 84 84 77 77 81 81 74 81 77 81 77 81 74 65 74 71 61 61 61 61 45 55 48 39 39 39 42 39 39 29 29
87 87 87 90 90 94 94 94 94 94 87 81 84 81 74 77 77 65 81 74 81 84 81 81 81 81 71 71 65 65 48 45 52 35 45 48 45 42 42 29 35 39 35
84 84 84 87 90 94 94 90 94 94 90 90 84 84 74 71 74 77 77 77 77 77 74 77 81 81 71 81 74 68 48 32 42 39 32 29 39 45 39 39 35 32 35
77 81 84 87 90 90 90 90 90 90 87 87 87 84 84 77 68 65 71 65 65 74 71 71 71 77 74 71 81 74 55 55 42 42 39 29 32 35 32 23 29 32 26
77 84 84 84 87 90 90 90 90 90 84 87 87 87 87 74 68 65 68 65 65 71 74 71 74 81 77 68 61 65 58 55 48 35 29 29 32 29 32 32 26 19 23
74 87 84 84 84 87 90 87 90 87 87 87 87 84 77 77 68 61 68 68 68 68 71 68 68 68 71 71 71 71 61 52 48 42 29 32 32 29 32 26 26 26 23

GEFSSE_con_cape1000_222.txt.gz
Probability
45 74 81 81 77 77 74 74 77 74 77 87 77 77 65 65 61 61 52 48 35 48 42 45 45 48 48 48 45 52 58 52 65 58 48 55 58 58 61 68 58 35 61
42 77 87 84 84 84 81 77 84 87 84 94 87 81 81 68 61 58 58 58 42 48 48 45 45 48 48 52 48 52 58 61 58 42 48 45 48 48 52 52 39 23 55
55 71 87 87 90 84 84 87 90 90 90 90 87 90 84 74 68 65 58 58 55 48 42 48 52 48 48 52 58 48 52 52 48 48 45 16 29 52 48 58 55 55 58
45 58 81 90 90 90 87 94 94 94 90 90 94 94 87 81 77 74 61 58 58 52 42 39 42 45 45 52 52 45 45 42 32 32 3 10 13 45 42 58 55 55 52
52 68 87 90 90 90 94 94 94 94 90 94 94 90 81 84 84 74 68 61 55 52 48 42 42 42 42 52 48 48 52 39 32 13 3 3 13 48 52 58 58 58 48
55 71 90 94 94 94 90 90 97 97 94 94 97 90 90 84 77 65 71 68 58 58 55 45 42 48 52 48 48 42 48 42 29 3 3 10 13 52 52 48 61 52 55
52 74 94 97 97 97 94 94 97 100 97 97 97 87 94 87 81 81 74 74 71 61 55 45 45 52 55 45 52 52 45 32 10 3 6 10 16 61 61 55 55 48 39
52 74 94 97 97 97 97 97 94 97 94 97 94 87 87 84 87 77 77 77 68 58 55 55 48 52 52 52 52 39 48 42 10 6 6 10 39 65 61 61 52 48 35
48 71 77 90 94 97 97 94 94 94 94 94 87 84 84 81 74 77 81 74 65 61 52 45 39 48 55 52 48 55 45 35 10 10 10 10 52 65 61 55 42 48 48
29 52 65 71 65 74 90 97 94 94 94 94 87 81 81 84 84 84 90 87 74 61 55 48 45 48 55 45 45 39 39 32 10 10 6 16 58 61 58 48 45 35 35
13 23 16 35 32 42 58 90 90 87 87 81 84 87 71 35 39 68 84 84 71 55 61 58 48 55 52 39 39 39 26 13 0 3 6 42 61 55 48 45 52 48 42
6 16 16 13 16 23 42 45 39 29 35 29 19 35 16 3 16 39 84 90 77 65 65 58 52 45 23 13 13 19 6 6 0 0 10 58 61 55 55 61 58 39 39
10 13 13 10 10 10 6 23 13 13 10 13 16 3 3 3 0 10 10 29 29 42 16 45 39 19 16 3 0 3 3 0 0 0 13 52 74 55 61 58 65 42 42
6 19 10 16 13 13 10 13 13 10 13 13 13 10 3 3 0 3 6 3 3 3 3 3 3 3 6 0 0 3 6 6 6 6 6 58 74 68 61 55 42 42 39
6 26 26 29 19 16 16 23 23 19 13 3 10 10 6 10 6 6 6 3 3 3 10 6 6 3 3 6 3 3 3 3 0 0 6 61 71 74 65 52 45 39 35
19 29 32 32 26 26 23 19 19 19 6 13 13 10 13 10 10 3 3 6 3 3 6 6 6 3 3 10 10 6 6 6 6 3 3 39 68 68 68 58 58 42 45
16 29 26 32 29 32 26 29 26 19 13 13 13 13 13 6 6 6 6 6 6 6 6 6 3 6 3 3 3 6 3 3 3 6 3 3 32 61 71 65 55 61 48
13 26 32 45 29 32 23 26 26 19 13 13 16 13 13 13 10 6 6 6 10 10 10 10 6 3 3 3 3 3 3 3 3 3 0 0 6 13 42 55 58 58 55
16 26 29 29 29 29 32 29 32 16 16 13 16 13 19 23 13 6 6 3 6 3 6 3 3 3 3 3 3 3 3 3 3 3 0 0 0 0 3 19 61 61 45
23 29 35 32 29 26 26 29 32 23 26 23 23 26 19 16 19 13 10 10 6 3 3 6 3 3 3 3 6 6 3 3 3 3 0 0 0 0 0 3 10 32 52
26 29 29 29 29 32 35 32 29 23 26 19 19 16 16 13 16 16 19 13 6 3 3 3 3 3 3 6 6 3 3 3 3 3 0 0 0 0 0 0 3 3 10
45 39 39 32 45 45 39 32 26 23 35 23 23 23 19 16 19 26 13 13 10 6 3 3 3 3 3 6 6 3 3 3 3 3 3 3 0 0 0 0 0 0 0
48 45 55 48 55 55 48 48 48 39 39 32 29 16 19 23 26 23 16 16 13 6 3 3 6 3 6 6 6 6 3 3 3 3 3 3 0 0 0 0 0 0 0
52 52 48 52 55 55 52 48 45 45 32 32 23 29 26 26 29 32 29 35 16 16 6 16 6 6 6 6 6 6 6 3 3 3 3 3 3 0 0 0 0 3 0
58 61 52 58 55 55 55 45 45 42 35 35 29 39 29 29 32 35 35 35 35 23 23 29 19 19 10 10 6 3 3 3 3 3 3 3 3 3 0 0 0 0 3
65 65 68 58 52 52 55 52 48 45 45 45 39 42 35 35 32 29 35 23 26 26 26 26 23 19 13 13 10 10 6 6 3 3 3 3 3 3 0 0 0 0 0

GEFSSE_con_cape1000_228.txt.gz
Probability
3 23 68 68 65 61 61 71 74 71 71 71 68 65 55 55 55 58 65 48 45 45 39 42 45 48 39 45 45 48 48 52 61 52 58 58 58 65 68 61 55 39 55
13 35 65 68 77 74 71 71 77 77 77 68 68 61 55 55 55 48 55 55 45 42 48 45 39 39 42 42 58 58 55 58 55 52 48 48 52 48 52 42 39 29 45
23 45 65 71 81 77 84 77 77 77 81 68 68 65 61 58 61 55 52 48 39 32 42 35 39 48 52 45 48 48 52 48 52 48 42 19 32 39 32 39 42 61 48
32 45 65 87 87 81 84 84 84 81 87 84 77 71 61 68 55 52 55 42 35 35 35 45 35 39 48 52 42 45 45 48 45 32 10 10 13 26 32 35 42 58 52
29 52 71 87 90 87 87 87 90 84 87 84 74 68 65 61 55 55 48 52 48 42 42 32 42 48 55 55 55 48 42 42 42 6 6 10 19 45 39 35 48 45 45
45 58 77 94 90 87 87 94 94 97 94 87 84 74 74 68 65 61 61 55 52 48 45 45 45 45 45 52 48 39 35 29 16 3 10 13 19 55 35 42 45 42 48
35 55 77 90 87 87 100 97 87 94 87 81 81 74 68 65 61 55 61 52 45 48 52 55 52 52 45 52 39 42 42 19 6 6 10 13 23 48 45 39 39 42 42
42 52 68 90 90 90 97 100 94 90 87 87 77 71 65 65 65 52 55 48 42 42 45 45 42 48 52 58 52 45 42 32 6 6 10 13 35 52 52 48 55 42 42
35 45 55 68 74 94 100 94 97 94 94 90 84 81 77 71 68 58 61 55 45 35 48 48 55 58 55 55 52 52 42 42 10 13 10 16 35 45 52 52 45 45 42
29 35 45 48 48 55 68 100 94 94 90 84 81 87 74 74 68 77 77 61 55 52 45 45 48 45 45 52 52 52 42 26 10 13 13 16 39 35 45 52 52 48 39
16 26 35 23 26 39 52 77 74 84 87 84 68 77 52 23 29 52 58 61 61 42 42 42 42 45 35 39 42 45 32 13 3 6 10 29 45 42 45 55 39 42 39
10 13 10 16 19 23 39 35 29 35 32 23 23 16 10 10 10 26 58 61 61 58 58 48 48 35 13 16 32 35 16 10 10 10 10 42 52 48 48 45 42 39 39
6 13 10 13 13 13 16 16 13 13 10 10 10 3 0 0 3 3 10 6 10 10 10 16 13 6 6 6 10 13 10 6 6 6 13 48 58 52 45 45 48 35 39
10 10 6 10 6 10 3 3 6 0 3 3 3 0 0 0 0 0 0 0 3 3 3 3 3 3 3 3 10 10 6 10 6 10 10 45 58 55 42 42 48 42 29
10 10 6 10 6 6 0 0 3 0 3 6 3 0 0 0 0 0 0 0 0 3 3 6 6 3 3 3 6 6 3 6 10 10 6 52 58 55 48 42 35 23 26
6 6 6 6 6 3 0 0 0 0 0 0 3 0 0 0 0 0 0 3 3 3 3 3 3 3 3 6 3 6 6 10 10 6 6 39 55 74 71 55 48 32 32
6 3 3 6 0 0 0 0 3 3 3 3 3 3 3 0 0 0 0 3 3 6 6 3 3 3 3 3 3 3 3 3 3 3 3 3 39 58 65 65 74 65 45
3 6 13 16 6 0 0 6 3 3 3 3 3 3 6 3 3 0 0 3 3 3 3 3 6 3 3 3 3 3 3 3 3 3 3 3 10 16 39 58 65 65 48
6 13 10 13 10 10 6 6 3 3 3 3 3 3 3 3 3 3 3 3 3 3 3 3 6 3 3 3 3 6 3 3 3 3 3 3 6 6 10 16 52 65 55
6 10 10 6 6 6 3 6 6 6 3 3 6 6 3 3 3 3 3 3 3 3 3 3 3 3 3 3 3 3 3 3 3 3 3 3 3 0 3 3 16 29 35
6 6 6 10 3 0 6 6 6 10 6 6 10 6 6 6 6 3 3 3 3 3 3 3 3 3 3 3 3 3 3 3 3 3 3 3 3 3 3 0 3 10 16
10 10 6 3 6 3 10 10 10 6 6 6 6 6 6 10 13 10 6 3 3 3 3 3 3 3 3 6 6 3 3 3 3 3 3 3 3 3 3 0 3 6 6
13 13 6 3 10 3 10 10 10 10 13 6 10 6 10 10 10 10 10 10 6 3 3 3 3 3 3 6 6 3 3 3 3 3 3 3 3 3 3 3 0 0 0
16 13 13 6 10 3 10 16 19 13 19 19 10 6 10 10 10 13 13 6 6 6 10 6 3 3 6 6 6 3 3 6 6 6 3 3 3 3 3 3 3 3 0
10 13 10 3 6 10 10 13 13 10 19 13 10 10 6 10 13 19 16 10 10 13 10 3 3 6 6 6 6 6 6 3 3 6 6 0 0 0 0 3 0 0 0
16 26 23 10 10 13 13 16 16 16 19 19 16 16 16 10 13 19 19 16 19 19 13 3 3 0 3 3 3 3 3 3 6 3 6 6 3 6 3 0 0 0 0

GEFSSE_con_cape1000_234.txt.gz
Probability
0 6 58 61 58 55 61 58 61 61 58 58 55 52 48 52 58 45 42 45 45 52 65 58 52 42 45 45 48 58 58 61 55 52 55 55 55 58 68 58 68 48 71
0 13 58 61 65 61 65 68 65 61 61 58 52 61 55 55 52 35 35 35 48 45 52 42 42 42 35 55 55 58 55 52 58 52 48 52 52 61 71 65 65 58 74
6 16 52 65 74 77 68 68 68 65 61 58 58 65 58 55 52 45 32 35 39 32 32 35 45 45 48 55 48 48 45 52 48 45 42 35 29 52 58 52 45 65 52
10 19 45 68 71 74 65 68 68 68 65 68 61 61 55 48 45 48 45 35 39 32 29 39 42 48 55 55 45 48 42 42 29 32 23 10 23 26 42 39 39 45 39
16 35 65 90 77 77 68 74 74 74 68 61 68 58 58 58 48 52 48 42 35 29 29 26 39 45 39 45 45 39 42 32 23 16 10 13 23 29 39 35 32 26 35
19 32 61 84 81 77 71 74 77 74 65 61 61 61 58 61 55 55 48 52 42 32 32 35 42 35 39 39 35 32 26 19 16 3 6 6 26 32 39 35 26 32 32
16 32 58 84 84 87 84 77 81 74 68 65 65 55 58 58 58 58 52 55 45 42 45 39 42 48 42 32 29 32 23 16 3 10 13 13 35 52 35 39 32 29 35
16 23 61 87 87 90 87 81 77 77 71 71 68 68 52 55 48 45 45 48 42 42 42 45 45 39 39 42 32 32 29 16 0 0 3 13 42 58 35 45 42 35 29
13 23 35 42 84 90 94 87 84 77 71 65 65 61 68 65 58 48 45 48 48 45 48 48 48 39 48 35 32 29 19 16 3 6 0 19 29 42 39 52 42 45 39
3 16 23 29 52 58 65 87 84 81 71 65 58 55 55 68 61 48 42 45 42 39 45 42 45 42 32 39 32 23 26 23 6 3 6 16 42 39 39 58 58 55 55
3 13 16 16 26 32 29 42 74 81 74 71 65 71 58 32 23 32 23 45 42 45 39 45 39 29 32 35 29 23 19 19 6 10 16 32 48 45 52 52 52 45 45
23 13 19 26 32 29 29 52 61 42 65 68 65 45 48 55 55 19 35 35 29 35 35 39 32 26 32 26 26 29 23 6 10 3 16 29 35 45 48 45 45 48 45
16 16 19 26 45 39 48 48 58 58 61 55 55 52 65 42 39 42 45 55 45 26 19 23 19 10 10 23 29 19 13 10 16 10 23 29 48 39 48 42 42 39 39
16 16 19 16 48 52 48 45 58 61 55 48 65 45 48 55 48 48 58 39 42 48 39 19 32 13 19 13 13 16 13 16 10 16 42 32 45 42 42 32 39 35 29
16 23 39 48 52 71 77 61 52 68 55 65 71 61 65 58 55 39 52 55 35 35 35 42 35 29 26 19 10 13 16 13 10 16 35 35 39 48 48 48 45 42 39
23 26 42 52 68 81 84 94 71 55 77 48 65 52 68 71 71 52 55 61 45 35 32 39 42 39 32 26 16 13 16 16 19 32 29 42 42 42 48 52 52 48 35
32 48 61 48 58 77 77 68 61 65 58 68 71 71 68 74 71 58 55 42 29 26 52 55 42 42 39 26 23 23 32 19 26 32 35 42 48 55 48 52 55 52 42
39 61 65 32 55 74 74 81 65 55 74 65 71 65 71 81 77 87 61 55 48 42 42 48 45 42 42 42 39 42 39 65 35 45 39 42 42 29 42 48 48 52 45
58 71 74 65 68 71 74 77 74 74 74 68 68 65 65 68 65 68 68 74 65 58 58 35 42 52 55 55 52 55 45 45 45 29 32 32 42 42 45 45 52 52 48
55 77 81 84 81 81 71 77 74 77 74 68 61 71 65 71 71 61 58 68 52 58 68 68 55 61 65 58 26 26 48 29 39 35 29 26 26 23 29 35 52 52 42
68 74 77 84 84 81 81 81 74 77 77 61 65 61 68 61 68 74 58 71 58 55 55 61 61 48 55 58 48 45 32 26 32 32 42 42 29 29 32 39 42 52 58
71 74 81 77 77 81 81 81 81 77 68 61 61 71 71 65 61 48 61 65 55 65 65 61 71 52 52 58 48 39 35 35 42 26 45 35 23 26 26 26 45 48 48
68 71 71 77 77 81 81 81 77 77 77 68 65 65 68 58 61 55 55 61 68 58 61 71 71 65 52 58 52 45 32 42 42 29 32 26 26 29 23 23 32 39 42
65 68 81 84 84 84 84 77 74 77 71 71 74 71 74 68 58 55 52 65 65 58 71 65 48 61 68 55 48 45 35 32 32 26 29 16 26 32 23 23 26 32 29
65 68 77 84 84 84 84 87 84 81 74 68 68 74 74 74 55 55 58 65 68 65 61 61 58 58 61 52 55 45 45 45 29 45 32 26 19 19 23 29 23 19 19
65 61 71 84 84 84 84 81 81 81 84 77 77 71 68 71 68 58 55 55 68 68 68 65 61 61 55 55 55 45 45 39 35 32 29 29 32 13 19 26 13 16 19

GEFSSE_con_cape1000_240.txt.gz
Probability
10 16 65 65 71 65 61 61 55 55 58 48 52 55 55 42 45 48 55 48 48 48 42 48 52 48 45 58 52 52 45 48 55 55 55 52 48 55 55 58 45 35 68
13 26 74 71 61 65 61 61 58 58 58 61 61 52 52 42 39 42 42 42 48 45 52 48 45 48 58 65 52 48 48 55 61 52 48 45 45 52 58 55 55 48 71
16 26 45 74 74 65 61 58 65 61 61 61 61 58 52 35 35 42 32 42 39 35 39 42 45 48 58 45 52 48 45 52 48 55 48 29 29 52 68 58 61 68 65
13 19 39 81 74 61 65 71 61 55 58 61 58 55 52 42 35 45 35 35 35 29 32 35 39 48 52 52 39 39 32 29 35 48 23 16 19 58 55 52 58 61 52
23 42 58 81 74 71 71 65 58 58 55 58 55 55 52 42 42 45 42 32 32 29 29 42 45 48 42 39 35 32 32 32 39 26 23 23 16 52 52 48 48 45 35
26 32 68 84 81 71 61 61 55 48 52 45 48 58 45 45 42 39 35 29 29 23 26 42 42 42 35 39 29 23 26 23 29 19 23 16 23 45 42 35 29 26 35
23 39 48 90 87 74 71 58 45 45 45 42 39 45 42 48 45 45 42 35 35 42 32 32 32 32 32 26 19 16 26 26 19 23 19 23 26 61 32 29 29 26 26
23 35 58 87 90 81 65 65 48 48 52 48 45 42 39 42 45 42 42 39 48 39 32 32 32 26 29 32 23 26 29 35 16 13 23 23 39 58 32 35 39 19 19
13 26 39 48 74 87 81 74 58 55 55 52 52 48 45 42 48 48 52 58 52 42 39 39 45 39 26 29 23 29 35 45 19 10 10 16 45 52 35 39 35 26 19
16 19 35 29 52 48 61 81 71 58 55 48 52 52 55 55 58 58 55 58 52 42 29 39 29 29 32 26 26 32 35 29 16 13 10 19 58 52 35 39 39 26 19
16 32 35 32 39 42 45 61 71 65 61 55 48 55 55 48 35 42 32 45 42 39 32 26 32 32 29 35 35 32 29 23 13 16 26 35 71 61 48 45 32 32 19
29 19 32 32 35 32 35 71 68 48 65 65 71 65 65 68 48 35 48 39 29 29 32 32 29 29 29 16 19 26 16 16 13 13 19 65 71 61 55 45 42 32 29
19 23 29 39 55 52 68 68 71 71 81 71 68 74 77 68 55 39 29 35 45 29 29 32 35 23 23 32 35 23 26 19 16 13 13 71 74 58 52 42 35 35 32
29 35 29 42 74 84 84 74 81 71 84 77 77 68 77 77 74 68 65 48 58 58 61 55 61 45 42 39 39 29 26 26 29 29 23 61 68 61 48 45 39 35 35
52 39 61 81 94 90 90 87 84 84 71 68 81 77 77 77 77 65 74 84 68 68 61 81 68 58 52 45 35 32 26 19 42 29 19 52 65 68 45 45 39 32 35
65 74 84 84 87 90 94 90 87 81 84 81 87 84 81 81 84 84 81 81 74 68 71 74 74 58 65 65 42 32 32 29 39 42 39 45 55 61 61 45 48 39 39
74 81 84 81 90 94 90 87 81 84 77 84 84 87 84 84 84 90 81 77 77 81 81 84 65 55 55 55 52 45 39 42 39 48 42 32 39 52 58 61 61 55 42
71 87 84 61 84 94 94 90 84 84 87 87 87 90 90 87 87 90 84 81 87 84 84 84 81 77 71 71 71 61 55 52 45 48 48 48 39 29 42 52 61 61 52
87 90 87 84 84 90 90 94 94 90 94 90 87 90 84 81 77 81 84 81 84 84 84 71 77 68 77 74 68 65 65 61 48 35 35 32 39 32 32 42 58 55 45
84 90 90 90 90 87 87 90 90 87 94 94 81 84 74 74 74 84 77 74 77 81 81 81 81 71 71 68 39 45 58 48 55 48 39 32 35 26 29 23 35 35 45
84 87 90 90 90 90 87 87 87 87 90 87 74 71 68 71 68 68 61 68 74 77 77 74 77 65 68 65 61 58 58 52 52 52 52 45 42 39 35 42 35 39 32
84 87 87 90 87 87 90 90 87 87 87 81 77 77 77 71 68 58 74 68 71 74 74 74 77 71 65 65 68 48 48 42 45 39 45 45 35 42 32 32 39 42 42
84 87 87 87 90 90 87 87 84 84 87 87 84 77 71 71 71 77 71 71 84 74 71 74 71 68 65 61 61 58 48 39 42 45 42 39 39 39 32 35 35 39 29
74 81 87 87 87 87 87 87 87 84 81 87 87 81 81 81 74 74 77 74 84 74 81 74 68 74 65 58 65 61 55 55 45 39 45 42 42 39 32 26 26 35 39
71 77 87 87 87 87 87 84 84 81 84 90 81 81 81 77 74 74 71 71 74 74 71 71 71 65 65 71 68 61 55 58 52 45 39 42 39 35 32 29 32 29 29
71 81 84 87 90 90 87 87 84 84 84 84 87 81 77 77 74 74 74 68 71 71 68 71 74 71 65 65 65 58 58 65 58 52 45 42 39 39 39 32 29 29 29

GEFSSE_con_cape1000_246.txt.gz
Probability
3 32 81 68 71 68 71 61 68 65 61 68 74 68 68 58 61 55 52 55 65 61 61 55 55 58 65 65 58 65 68 71 68 61 58 61 65 61 58 65 48 48 71
3 32 77 81 77 77 71 68 71 71 71 71 68 68 65 61 58 52 52 45 61 61 58 48 61 58 58 65 61 61 71 68 65 58 65 58 58 58 65 61 48 45 65
16 35 65 74 77 74 68 68 61 68 68 71 71 61 52 55 55 55 52 58 55 55 58 52 52 58 55 55 52 52 48 61 55 58 45 23 45 65 65 65 58 61 65
13 23 45 77 81 74 71 58 58 65 68 74 61 68 58 55 48 52 48 55 58 61 65 52 55 52 55 55 52 45 45 45 45 32 13 16 32 58 68 61 61 58 58
13 26 55 77 81 74 71 65 61 58 65 61 65 61 55 48 48 52 48 48 52 65 65 58 52 48 48 45 35 35 39 32 29 13 6 10 19 58 65 61 58 52 55
16 32 52 90 81 77 77 61 61 58 58 61 58 52 52 52 45 45 52 52 45 58 52 55 48 35 26 26 29 26 42 29 16 10 3 6 13 58 61 55 55 42 45
19 29 48 84 84 81 81 58 58 68 58 55 55 52 52 48 45 45 48 48 45 48 55 45 42 39 35 29 19 26 29 19 6 0 3 3 13 68 61 55 52 39 35
16 32 48 87 77 74 74 71 52 52 52 45 48 55 52 45 48 45 42 42 45 35 39 32 35 39 26 26 29 35 42 29 10 0 3 3 23 55 39 42 45 32 26
23 32 39 52 61 68 77 68 61 61 61 52 52 61 52 48 48 48 52 55 39 35 35 35 32 39 39 35 32 39 52 39 10 0 3 3 45 52 35 42 42 45 42
16 19 23 32 26 32 45 74 68 65 65 55 55 52 48 52 48 52 58 61 48 35 42 32 32 32 39 42 42 39 48 39 6 6 6 16 68 42 39 42 39 35 42
13 6 6 13 19 23 23 55 55 58 58 58 52 52 39 23 23 32 42 52 45 35 35 39 32 35 35 35 39 45 23 6 3 6 6 29 52 45 52 42 35 29 29
0 6 3 6 6 13 16 23 16 23 26 16 19 19 16 16 0 19 35 52 39 45 45 35 29 32 26 13 6 19 10 6 6 6 3 52 55 52 55 45 42 35 26
0 3 6 3 6 3 0 6 6 6 13 6 6 10 6 6 3 6 10 16 13 13 10 13 19 13 10 3 3 3 3 3 6 6 19 58 68 61 58 48 45 39 26
0 0 0 0 6 3 3 3 6 6 3 6 6 6 6 3 3 3 6 6 3 3 6 6 10 6 6 10 6 3 3 3 3 6 13 55 68 74 58 48 45 42 39
3 6 0 0 3 3 6 6 6 6 6 6 6 13 6 6 3 3 3 3 3 6 6 6 6 6 3 6 6 3 3 3 3 3 10 58 74 71 65 55 58 52 45
6 6 6 6 10 6 6 6 6 3 3 3 6 10 6 3 3 3 3 3 3 3 3 6 6 0 0 3 0 3 3 3 3 3 3 29 71 71 71 61 48 58 52
10 13 13 10 6 13 13 10 16 10 10 6 6 10 6 3 3 3 3 3 3 6 3 3 3 3 0 0 0 3 3 3 0 3 3 3 19 61 68 71 61 61 65
10 13 29 23 16 10 10 13 16 10 3 6 10 10 10 10 3 3 6 6 10 6 3 0 0 0 0 0 0 3 0 0 0 0 3 3 6 6 29 61 65 68 55
13 19 23 23 13 13 19 13 13 13 10 10 13 6 10 10 6 3 3 3 6 6 3 6 0 0 0 0 0 3 0 0 3 6 0 0 0 0 3 26 58 55 45
16 13 26 29 23 29 23 26 13 16 13 10 13 13 13 13 10 6 3 6 10 3 6 0 3 3 0 0 0 3 3 0 3 0 3 3 3 3 3 0 23 45 45
29 19 26 26 29 29 29 23 16 16 23 13 13 13 10 10 23 16 19 13 10 10 6 3 6 3 0 0 0 0 0 0 0 0 0 3 6 3 6 3 0 3 10
35 29 32 26 32 32 26 16 23 16 16 19 19 19 16 16 19 26 19 13 13 13 6 10 6 3 3 3 0 0 0 0 0 0 0 3 6 10 6 6 3 3 0
39 35 45 32 35 39 32 39 35 26 19 16 13 13 13 23 26 29 23 13 10 13 10 10 13 13 6 6 3 3 0 0 0 0 0 0 0 3 3 3 3 3 3
48 39 35 45 42 42 45 35 29 23 19 16 13 13 16 29 32 23 19 23 26 19 19 16 13 13 13 6 3 3 3 0 3 0 0 0 0 6 3 3 3 3 3
48 58 52 61 52 48 55 35 23 26 23 19 23 26 19 23 29 26 29 23 16 19 19 13 16 10 10 10 6 6 10 3 0 3 3 3 0 0 0 3 0 0 0
58 58 58 61 58 45 52 45 39 32 26 32 29 26 23 23 23 29 32 26 23 19 16 13 19 16 13 16 13 10 10 3 6 6 6 6 3 0 0 0 0 0 0

GEFSSE_con_cape1000_252.txt.gz
Probability
0 0 29 58 58 58 58 61 58 65 71 65 58 58 68 55 52 55 58 68 74 68 61 55 61 68 71 68 68 71 74 71 74 74 74 74 74 74 71 71 61 48 71
0 6 45 61 61 58 61 61 58 61 58 61 61 71 61 55 58 61 61 71 71 65 65 55 65 77 71 68 71 68 74 77 74 74 74 71 71 74 74 61 45 45 65
0 10 35 68 71 61 58 65 58 61 65 61 52 58 58 58 55 55 55 61 61 65 58 58 55 58 55 58 58 55 68 71 68 71 68 48 65 65 65 58 58 52 55
3 6 32 68 71 68 58 65 65 61 65 61 52 58 61 55 58 55 52 52 58 58 55 48 45 45 48 48 52 55 52 45 52 52 23 35 35 61 74 68 61 58 52
10 13 35 71 61 65 61 55 58 58 61 61 55 55 58 48 61 58 58 55 58 52 55 45 42 45 48 45 39 42 48 45 39 16 19 26 39 61 58 61 65 55 45
6 23 42 74 68 58 55 48 48 55 52 52 58 52 55 55 55 52 52 58 55 58 55 45 32 35 35 39 42 42 52 52 19 13 10 13 35 52 52 48 45 55 48
10 19 42 68 65 65 55 55 58 61 45 45 55 45 48 58 58 52 55 55 55 52 55 52 35 32 32 32 35 35 39 19 3 10 6 10 39 48 45 42 48 48 45
16 23 35 55 61 68 58 55 58 61 52 52 55 48 45 48 52 52 52 52 45 48 39 42 35 29 26 29 35 35 29 19 3 3 3 6 42 55 42 45 42 42 45
16 19 26 32 32 61 68 55 52 55 55 55 52 42 42 48 45 42 45 45 48 39 39 35 29 29 32 39 39 29 29 29 6 6 3 3 42 45 39 35 35 32 32
10 13 16 23 26 26 26 45 61 42 48 55 55 52 42 39 39 42 55 55 45 35 29 32 26 26 32 35 39 45 32 23 6 6 10 13 42 39 32 26 35 32 29
10 6 10 19 19 23 26 32 42 39 39 39 32 45 29 10 10 19 39 45 35 32 29 26 29 39 32 39 39 48 35 13 3 6 10 13 39 32 32 42 42 35 35
3 6 6 6 10 13 16 16 13 19 23 19 16 13 3 0 3 16 39 42 32 29 32 26 26 29 23 13 16 19 13 10 10 10 13 32 35 35 35 39 45 32 29
6 6 6 6 3 3 3 3 6 3 3 6 6 6 0 3 6 6 6 10 10 10 10 10 13 16 10 10 13 13 6 3 6 6 13 32 48 45 32 35 42 32 32
0 6 6 3 0 0 0 3 0 0 3 6 6 6 3 3 3 3 6 6 6 6 6 6 10 6 10 10 13 13 3 3 3 6 6 32 48 52 42 32 35 32 42
0 0 0 0 0 0 0 0 0 0 3 6 3 3 3 3 3 3 3 3 3 3 6 6 3 6 3 3 3 10 6 6 6 6 6 32 42 61 52 45 32 35 35
0 0 0 0 0 0 0 0 0 0 3 3 0 3 0 0 3 3 3 3 3 3 0 3 3 3 3 3 6 6 6 3 3 3 10 29 45 58 58 65 52 48 42
0 0 0 0 0 0 0 0 0 0 3 3 3 0 0 3 3 3 3 3 0 0 0 0 3 3 3 3 3 0 6 10 3 3 3 19 26 45 55 55 58 52 48
0 0 0 3 0 0 0 0 3 3 0 0 0 0 3 3 3 3 3 0 0 0 0 0 0 3 3 0 0 0 3 6 10 3 6 6 13 19 35 52 58 58 52
0 0 3 0 0 0 0 0 0 0 0 0 3 3 3 3 3 3 3 0 0 0 0 0 0 0 0 0 3 3 3 3 3 6 6 6 3 13 16 19 42 55 48
3 0 0 0 0 0 0 0 0 0 0 0 3 3 3 3 6 3 0 0 0 0 0 0 0 0 0 0 0 0 0 0 3 3 3 3 0 0 3 6 26 32 35
3 3 6 6 0 0 0 0 0 0 0 0 3 3 3 3 6 3 0 0 3 3 6 3 3 6 3 0 0 0 0 0 0 3 3 3 3 3 6 10 10 13 23
6 6 6 6 3 3 0 0 0 0 0 0 3 3 3 6 3 6 3 3 3 3 3 3 3 3 3 3 6 6 0 0 0 0 0 3 6 3 10 6 3 10 10
10 10 6 0 3 6 6 3 3 3 0 3 3 3 6 10 6 3 6 6 6 6 6 6 10 10 6 3 3 3 3 3 3 3 0 0 0 0 3 10 10 3 3
10 10 3 3 3 6 6 6 3 0 3 3 3 6 6 13 10 13 10 10 6 6 6 6 6 10 6 6 3 3 3 3 3 3 3 3 3 3 6 6 10 10 6
13 10 6 3 3 3 6 6 3 0 0 3 6 6 10 10 10 6 13 10 6 6 6 10 10 6 6 10 6 6 3 3 3 3 6 6 6 3 3 6 6 6 6
16 23 16 6 3 3 6 10 3 6 6 6 6 10 13 10 10 6 6 13 16 10 10 10 6 6 10 6 6 6 10 6 6 6 6 6 6 6 6 6 6 3 3

GEFSSE_con_cape1000_258.txt.gz
Probability
0 6 42 39 55 58 65 58 61 48 48 48 52 48 52 55 61 61 68 65 68 68 74 74 65 61 71 81 81 84 81 74 84 71 71 74 71 71 65 55 48 35 68
0 13 42 45 61 61 61 65 58 55 55 52 45 52 55 58 58 61 71 71 68 71 65 68 61 55 74 74 77 77 77 81 77 81 71 71 71 65 61 55 61 48 65
3 13 26 65 61 61 58 52 58 52 48 45 48 45 52 52 55 58 71 71 61 71 61 55 58 55 68 77 71 68 71 74 77 74 65 45 45 52 52 52 58 58 55
3 16 29 58 65 65 52 58 52 48 52 52 52 55 48 39 39 52 55 58 61 65 61 55 52 52 61 68 65 61 58 61 65 65 23 19 23 48 45 45 48 52 55
6 16 39 61 65 58 58 58 55 52 58 61 55 55 55 52 42 48 52 52 61 65 58 55 48 52 48 58 48 55 52 45 35 29 23 23 42 35 35 35 45 48 55
6 6 35 61 65 55 55 58 58 58 55 61 58 55 48 52 45 52 55 52 52 55 48 42 42 39 45 42 45 48 48 35 19 16 16 29 32 52 39 35 29 42 48
6 13 23 52 58 65 55 55 52 48 58 55 55 55 48 45 45 55 52 48 48 48 35 39 29 39 32 35 35 39 42 35 13 6 13 16 35 52 35 39 42 32 29
10 13 19 42 48 55 55 55 58 48 48 52 48 45 42 35 48 52 55 48 42 42 39 32 32 29 26 29 35 32 32 19 3 3 6 13 52 45 32 39 42 35 39
6 13 19 10 39 42 55 55 55 52 45 45 45 39 35 39 42 52 52 48 45 48 35 32 26 23 23 23 32 32 26 23 10 13 3 13 19 35 29 39 42 32 35
3 3 16 16 19 23 32 42 42 45 42 39 45 39 35 35 35 39 42 42 35 35 35 32 23 29 29 26 32 32 23 26 6 3 6 10 48 29 23 29 32 32 39
3 10 13 13 19 23 26 19 35 39 32 39 39 35 39 23 23 26 26 39 32 39 23 23 23 23 26 32 29 26 23 23 10 13 16 23 39 32 19 29 26 26 29
6 10 10 10 23 26 19 35 32 26 32 45 48 39 32 32 39 19 29 35 39 39 29 23 23 23 26 26 19 26 23 16 16 13 26 39 35 32 29 32 29 26 29
6 6 10 13 23 19 32 32 32 32 39 32 35 29 48 29 35 32 39 42 39 29 23 16 19 23 23 29 26 19 23 16 13 6 19 42 42 32 26 23 23 29 32
13 13 6 16 35 35 32 23 32 26 39 39 42 39 26 39 39 32 45 32 35 26 26 23 29 26 19 26 19 16 26 26 16 10 35 32 39 39 32 29 32 32 35
19 19 23 39 35 45 48 39 32 39 35 32 52 39 45 35 32 16 39 42 35 29 29 29 26 39 32 26 29 23 32 29 19 13 32 35 42 42 35 35 39 35 32
19 23 32 35 45 52 55 58 45 32 55 32 39 42 42 39 39 32 39 45 35 29 29 32 42 35 35 35 35 29 29 19 19 29 23 35 35 48 48 45 39 32 29
26 32 39 32 39 42 39 29 32 39 42 32 35 45 45 39 45 42 39 42 39 29 39 42 35 35 35 26 26 32 29 29 26 32 32 32 32 32 45 48 39 42 45
29 35 35 13 39 48 61 58 45 45 52 45 48 52 45 42 48 48 35 26 39 39 29 45 45 29 35 26 32 32 26 39 29 32 29 35 32 26 39 45 42 45 39
42 52 68 35 39 45 65 71 52 58 55 55 55 55 52 52 45 48 45 39 45 42 45 35 39 39 39 48 35 39 35 35 35 26 26 26 26 26 32 45 42 42 42
52 61 71 68 68 65 65 65 65 65 55 52 52 58 45 48 42 45 52 48 32 32 48 48 48 52 48 55 26 35 35 39 45 29 26 19 19 26 19 35 48 45 48
58 68 77 71 74 77 74 61 61 58 58 55 55 52 55 52 48 55 45 48 48 39 42 35 42 45 52 55 45 39 29 32 32 35 32 32 23 16 23 32 42 42 48
58 68 68 77 74 77 74 74 74 74 61 61 58 61 58 55 58 52 58 42 42 65 55 52 58 52 42 42 42 35 29 32 42 16 32 32 26 29 32 26 42 35 45
61 61 61 74 81 77 74 68 71 74 65 58 65 61 58 58 55 55 55 52 48 52 58 55 55 58 45 39 42 39 29 23 26 29 35 35 35 39 35 29 35 39 42
61 58 58 77 81 81 77 71 68 74 61 61 71 61 52 48 52 48 55 52 48 45 55 48 45 52 61 45 45 45 32 29 29 32 29 26 32 35 29 16 29 39 42
45 55 58 77 81 77 74 77 81 74 74 58 61 58 61 55 52 42 48 48 55 52 52 55 55 61 61 42 42 35 48 52 42 32 29 29 26 29 32 35 42 39 35
45 52 61 77 81 81 77 74 74 77 71 68 68 68 61 61 61 48 48 55 55 55 52 58 61 58 61 58 58 45 48 39 42 32 35 29 29 26 26 26 29 39 39

GEFSSE_con_cape1000_264.txt.gz
Probability
13 29 61 65 65 61 55 58 58 61 58 61 61 55 58 65 61 48 58 68 61 65 65 68 65 68 74 74 71 71 81 81 74 74 74 71 74 77 71 68 55 35 71
16 29 65 68 61 68 58 55 61 65 61 61 58 52 48 55 61 58 61 65 68 68 61 68 65 65 65 68 74 81 81 71 71 74 74 68 71 65 68 65 58 32 58
13 23 42 61 58 58 61 58 61 58 55 48 42 45 45 55 55 58 58 61 65 65 61 61 65 58 58 68 81 74 74 71 71 71 74 29 42 61 65 61 58 55 52
10 13 23 52 48 48 58 61 58 61 48 45 45 42 42 52 48 61 45 55 52 55 58 61 55 45 55 58 65 71 61 48 71 71 26 13 23 52 55 52 58 52 52
13 26 39 52 48 42 52 58 61 55 48 45 52 48 42 45 52 52 52 48 55 55 55 48 58 52 52 58 55 58 58 55 61 48 19 29 26 55 55 48 48 42 45
13 10 32 52 52 45 48 55 58 52 48 45 45 42 45 39 42 52 52 48 58 52 55 48 48 45 52 48 29 39 39 39 48 6 29 19 26 61 48 48 42 39 35
6 3 19 52 55 52 55 61 61 42 42 48 42 35 42 48 45 39 45 58 52 52 52 39 45 35 39 29 23 26 39 45 23 10 23 26 35 68 55 48 45 39 29
3 3 29 52 55 58 58 58 55 52 52 45 42 32 42 45 42 35 42 48 48 48 42 35 39 39 35 19 19 26 42 45 10 0 29 23 48 61 52 45 58 32 35
6 6 16 29 48 55 52 52 48 42 39 45 39 32 39 42 42 39 39 35 42 35 32 32 32 23 26 23 23 32 39 45 26 6 6 23 58 61 48 48 39 35 39
10 10 10 16 26 32 29 32 45 45 42 42 35 35 45 45 45 42 39 42 32 29 26 19 16 19 32 29 26 29 45 52 19 13 16 23 65 45 52 42 35 35 32
13 19 19 16 23 29 19 26 32 39 42 39 32 39 35 26 26 39 26 32 23 29 26 26 26 32 32 32 35 45 45 23 16 16 13 23 61 42 45 42 35 29 29
19 10 26 26 29 26 26 32 32 29 32 39 35 35 32 61 52 26 39 35 35 35 26 29 26 32 29 16 23 55 39 23 13 13 16 45 55 45 39 35 32 23 29
19 16 23 29 39 35 39 39 35 35 48 39 48 52 52 48 45 29 29 29 35 29 19 29 32 16 19 26 29 29 35 16 13 13 23 52 58 48 39 39 32 26 26
39 26 26 39 55 48 48 48 45 45 45 42 55 55 55 61 58 55 58 45 32 35 35 32 35 35 35 32 39 32 23 26 29 26 26 42 55 45 39 35 32 32 29
48 48 61 61 74 68 68 65 45 61 45 48 61 61 65 61 65 58 65 65 52 48 35 42 42 39 42 45 39 39 42 42 35 29 23 32 39 45 45 39 35 32 32
42 52 58 61 68 77 74 68 65 58 65 55 65 65 65 65 68 68 61 71 61 58 52 45 48 48 48 52 48 42 42 32 32 35 26 35 39 45 42 42 35 39 35
52 65 74 58 68 74 71 68 58 61 52 71 65 61 55 65 65 65 71 68 71 71 61 58 48 52 48 48 52 48 55 42 39 42 32 32 29 42 45 55 45 45 45
52 74 71 32 58 77 74 77 61 58 61 61 65 61 61 61 65 71 71 68 74 71 65 61 58 55 58 55 55 55 55 55 55 48 45 48 32 16 29 45 58 55 48
71 77 77 74 77 71 77 77 68 68 68 68 61 68 68 58 58 61 74 74 68 71 71 48 65 58 58 58 55 58 48 52 48 39 39 45 35 29 19 26 52 55 45
68 77 81 84 87 84 77 74 74 71 68 68 68 68 71 68 55 58 68 68 68 71 71 61 61 61 58 55 35 45 55 48 45 48 39 29 26 26 16 16 29 32 48
71 81 81 84 84 84 77 74 74 71 71 68 68 65 68 61 68 68 74 74 74 71 68 65 61 58 55 58 55 52 42 48 39 45 42 35 32 23 26 32 35 32 19
77 81 81 84 84 84 84 84 84 81 68 68 68 68 68 61 61 58 74 77 77 77 77 74 65 58 58 58 58 48 39 48 39 26 42 35 26 29 26 26 35 35 35
74 77 77 81 84 84 87 84 81 81 74 71 74 74 71 61 65 74 68 68 74 71 77 68 65 65 58 61 55 55 48 42 45 45 39 35 39 39 35 32 35 42 42
71 74 81 84 84 87 84 87 81 77 74 74 77 74 77 61 61 61 58 61 68 71 74 65 61 65 58 58 58 58 52 52 48 45 39 39 35 39 35 35 32 39 39
58 65 74 84 87 87 87 87 87 81 81 74 77 77 77 71 68 65 68 65 65 68 68 65 74 68 71 58 58 58 48 48 45 48 42 39 35 39 35 35 35 32 39
55 61 68 81 84 81 81 84 90 77 90 84 77 77 74 74 71 68 65 68 71 68 65 71 65 71 68 65 68 61 52 45 42 45 35 35 35 39 39 39 35 32 42

GEFSSE_con_cape1000_270.txt.gz
Probability
10 26 84 84 77 71 74 68 71 68 65 68 68 55 52 61 68 68 71 65 68 55 58 58 61 68 74 74 74 68 71 84 81 81 84 84 84 84 84 74 74 55 77
10 26 84 81 74 68 74 68 74 74 74 71 61 65 55 61 58 58 65 68 65 61 58 52 61 65 65 71 74 77 77 77 77 74 74 74 74 74 68 71 58 45 68
10 19 52 77 71 65 68 71 74 71 74 68 68 68 61 52 58 65 65 61 65 61 68 48 61 58 61 77 74 68 71 74 68 68 65 42 52 77 68 61 61 65 65
13 23 32 68 65 58 65 68 74 71 61 65 58 65 61 48 55 61 61 61 61 65 68 55 58 52 65 71 68 71 68 65 55 52 10 6 23 58 61 65 58 55 61
13 16 26 58 58 61 68 71 74 71 61 55 58 58 58 52 52 55 65 58 61 61 58 55 55 48 55 65 65 61 65 52 52 26 3 0 19 58 61 65 55 52 58
10 19 42 58 58 58 68 65 71 68 55 52 52 55 55 52 55 58 61 58 55 52 55 55 58 52 52 45 55 52 61 55 32 0 3 3 19 58 65 55 52 55 55
6 19 42 58 55 55 58 65 68 48 45 52 45 45 45 45 45 52 55 55 45 45 48 45 55 45 52 35 39 45 52 45 0 0 3 3 23 71 58 58 48 45 42
10 16 32 52 55 61 61 61 65 52 48 48 48 45 45 45 45 45 48 55 45 45 48 48 65 52 39 45 42 48 39 35 3 0 3 3 48 74 58 55 48 39 39
6 10 19 32 39 55 61 61 61 58 55 52 48 52 45 45 42 42 45 48 42 48 55 55 52 45 42 39 45 52 55 42 0 0 3 10 65 74 58 61 45 39 39
6 6 10 13 19 23 29 48 55 52 52 48 52 55 48 42 39 39 52 52 48 48 48 48 39 26 39 48 42 42 48 19 0 0 0 13 71 68 55 55 58 39 32
3 3 6 13 13 16 13 26 29 45 48 48 48 48 35 13 13 19 29 55 48 45 45 39 42 35 39 39 48 55 26 6 3 3 3 32 65 61 52 55 48 35 35
6 6 6 6 10 10 13 16 16 23 19 23 23 23 6 3 3 10 45 45 48 52 48 45 42 32 23 6 6 13 6 6 3 3 3 48 65 52 52 45 52 39 42
6 6 6 6 6 6 3 6 10 10 10 13 10 10 6 3 10 10 6 10 19 26 16 16 23 6 6 3 3 3 3 6 3 3 3 61 65 61 52 48 45 42 35
10 10 10 6 6 6 6 6 6 6 6 13 10 6 3 3 6 6 6 6 3 3 3 3 3 3 6 6 3 3 3 10 3 3 3 55 61 68 61 52 42 35 32
10 13 6 6 6 6 10 6 3 3 3 10 10 3 3 0 6 6 6 6 3 6 3 3 3 3 3 3 3 3 6 6 6 3 3 52 65 61 55 52 52 58 42
10 10 10 6 6 3 6 6 6 6 0 10 6 10 10 3 6 10 6 6 6 3 3 3 3 3 3 3 6 6 3 6 6 3 3 29 55 58 55 48 52 42 48
10 10 10 10 6 3 6 6 3 10 3 3 3 3 6 6 6 6 3 3 3 0 3 0 0 3 6 3 6 6 10 6 10 0 3 6 23 45 48 48 52 45 48
13 10 10 16 10 10 6 10 10 10 10 10 3 6 6 6 6 3 3 6 3 3 3 0 3 10 3 3 3 10 10 10 3 3 3 0 6 16 32 45 52 55 55
13 13 10 10 10 10 13 10 13 6 6 6 6 16 13 6 3 6 6 6 6 6 6 6 3 0 3 6 10 10 10 6 6 10 3 6 6 6 16 26 55 55 52
19 16 10 10 16 10 13 13 10 6 3 6 6 19 6 6 6 6 10 10 6 6 6 6 6 6 10 10 13 13 6 6 3 6 6 6 6 6 3 3 10 39 52
19 23 16 16 19 26 10 6 3 6 3 6 10 16 13 10 16 13 16 10 10 6 6 6 6 6 6 6 3 3 3 3 3 3 3 3 6 10 3 3 3 6 13
19 16 16 19 19 19 16 6 6 6 10 10 10 16 10 16 13 13 10 6 10 13 10 6 6 6 3 3 6 6 3 0 0 3 3 3 6 6 10 10 3 3 6
26 19 19 19 26 23 16 3 10 0 3 6 6 13 13 16 16 10 13 16 16 13 10 6 3 6 3 3 3 6 0 0 0 0 0 3 3 3 3 3 3 3 3
23 29 19 29 26 29 23 23 6 0 3 3 3 10 13 16 13 13 3 6 3 3 6 6 10 3 6 3 6 3 3 3 3 0 0 0 0 0 3 6 6 6 3
32 32 32 32 29 32 23 23 16 13 6 6 6 6 13 13 13 16 13 6 3 3 13 13 13 6 6 10 6 6 6 3 0 3 0 0 0 0 0 3 3 6 3
32 42 32 32 35 39 45 26 16 13 6 6 6 6 10 16 13 19 26 13 6 10 13 16 16 13 6 13 3 6 6 3 3 3 0 0 0 0 0 3 3 3 0